SCP
0 1 1 1 1 1 1 0 0 0 0 0 0 1 1 1 1 1 0 0 0 0 0 0 0 0 0 1 1 1 1 1 1 0 0 0 0 0 0 0 0 0 0
0 0 0 0 1 1 1 1 0 0 0 0 0 0 1 1 1 1 1 1 0 0 0 0 0 0 1 1 1 1 1 1 1 1 0 0 0 0 0 0 0 0 0
0 0 0 0 0 1 1 1 1 1 0 0 0 0 1 1 1 1 1 1 1 1 0 0 0 0 0 1 1 1 2 2 2 1 1 0 0 0 0 0 0 0 0
0 0 0 0 0 0 1 1 1 1 1 1 0 0 0 0 1 1 1 1 1 1 1 0 0 0 0 0 1 1 2 2 2 2 1 1 0 0 0 0 0 0 0
0 0 0 0 0 0 0 1 1 1 1 1 1 0 0 0 0 0 1 1 1 1 1 0 0 0 0 0 0 1 2 2 3 2 2 1 1 0 0 0 0 0 0
0 0 0 0 0 0 0 0 0 0 1 1 1 1 0 0 0 0 0 1 1 1 1 1 0 0 0 0 0 0 1 2 2 2 2 2 1 0 0 0 0 0 0
0 0 0 0 0 0 0 0 0 0 0 1 1 1 0 0 0 0 0 0 1 1 1 1 0 0 0 0 0 0 0 1 1 2 2 2 1 1 0 0 0 0 0
0 0 0 0 0 0 0 0 0 0 0 0 0 1 0 0 0 0 0 0 0 1 0 0 0 0 0 0 0 0 0 0 0 1 1 1 1 0 0 0 0 0 0
0 0 0 0 0 0 0 0 0 0 0 0 0 0 0 0 0 0 0 0 0 0 0 0 0 0 0 0 0 0 0 0 0 0 0 0 0 0 0 0 0 0 0
0 0 0 0 0 0 0 0 0 0 0 0 0 0 0 0 0 0 0 0 0 0 0 0 0 0 0 0 0 0 0 0 0 0 0 0 0 0 0 0 0 0 0
0 0 0 0 0 0 0 0 0 0 0 0 0 0 0 0 0 0 0 0 0 0 0 0 0 0 0 0 0 0 0 0 0 0 0 0 0 0 0 0 0 0 0
0 0 0 0 0 0 0 0 0 0 0 0 0 0 0 0 0 0 0 0 0 0 0 0 0 0 0 0 0 0 0 0 0 0 0 0 0 0 0 0 0 0 0
0 0 0 0 0 0 0 0 0 0 0 0 0 0 0 0 0 0 0 0 0 0 0 0 0 0 0 0 0 0 0 0 0 0 0 0 0 0 0 0 0 0 0
0 0 0 0 0 0 0 0 0 0 0 0 0 0 0 0 0 0 0 0 0 0 0 0 0 0 0 0 0 0 0 0 0 0 0 0 0 0 0 0 0 0 0
0 0 0 0 0 0 0 0 0 0 0 0 0 0 0 0 0 0 0 0 0 0 0 0 0 0 0 0 0 0 0 0 0 0 0 0 0 0 0 0 0 0 0
0 0 0 0 0 0 0 0 0 0 0 0 0 0 0 0 0 0 0 0 0 0 0 0 0 0 0 0 0 0 0 0 0 0 0 0 0 0 0 0 0 0 0
0 0 0 0 0 0 0 0 0 0 0 0 0 0 0 0 0 0 0 0 0 0 0 0 0 0 0 0 0 0 0 0 0 0 0 0 0 0 0 0 0 0 0
0 0 0 0 0 0 0 0 0 0 0 0 0 0 0 0 0 0 0 0 0 0 0 0 0 0 0 0 0 0 0 0 0 0 0 0 0 0 0 0 0 0 0
0 0 0 0 0 0 0 0 0 0 0 0 0 0 0 0 0 0 0 0 0 0 0 0 0 0 0 0 0 0 0 0 0 0 0 0 0 0 0 0 0 0 0
0 0 0 0 0 0 0 0 0 0 0 0 0 0 0 0 0 0 0 0 0 0 0 0 0 0 0 0 0 0 0 0 0 0 0 0 0 0 0 0 0 0 0
0 0 0 0 0 0 0 0 0 0 0 0 0 0 0 0 0 0 0 0 0 0 0 0 0 0 0 0 0 0 0 0 0 0 0 0 0 0 0 0 0 0 0
0 0 0 0 0 0 0 0 0 0 0 0 0 0 0 0 0 0 0 0 0 0 0 0 0 0 0 0 0 0 0 0 0 0 0 0 0 0 0 0 0 0 0
0 0 0 0 0 0 0 0 0 0 0 0 0 0 0 0 0 0 0 0 0 0 0 0 0 0 0 0 0 0 0 0 0 0 0 0 0 0 0 0 0 0 0
0 0 0 0 0 0 0 0 0 0 0 0 0 0 0 0 0 0 0 0 0 0 0 0 0 0 0 0 0 0 0 0 0 0 0 0 0 0 0 0 0 0 0
0 0 0 0 0 0 0 0 0 0 0 0 0 0 0 0 0 0 0 0 0 0 0 0 0 0 0 0 0 0 0 0 0 0 0 0 0 0 0 0 0 0 0
0 0 0 0 0 0 0 0 0 0 0 0 0 0 0 0 0 0 0 0 0 0 0 0 0 0 0 0 0 0 0 0 0 0 0 0 0 0 0 0 0 0 0
Wind_Speed
1 1 1 2 2 3 3 5 6 6 7 7 8 8 9 10 10 11 13 12 14 15 14 15 16 14 12 10 10 11 12 12 15 9 5 6 9 10 8 8 8 9 10
1 1 2 2 3 3 4 5 5 6 6 7 8 8 9 9 10 11 13 13 14 15 15 15 17 13 15 12 11 13 12 12 13 15 7 6 8 8 8 8 7 7 7
2 2 2 3 3 4 5 5 5 6 7 7 7 8 9 9 10 11 12 13 14 15 15 15 16 15 16 13 13 13 11 10 11 12 10 5 5 4 5 5 5 5 5
2 2 2 3 4 5 5 5 6 6 7 7 8 8 9 9 10 10 11 12 13 13 13 14 14 14 15 14 12 13 11 11 10 10 9 5 4 3 4 5 4 5 5
1 1 2 4 4 5 5 6 6 6 7 7 8 8 8 8 8 9 9 11 12 13 13 13 14 14 16 14 11 11 11 11 9 9 9 6 6 5 6 5 7 5 4
1 1 3 4 4 5 6 6 7 7 7 7 8 8 9 8 10 12 11 10 11 12 13 12 12 13 13 17 18 18 16 14 12 11 9 10 9 8 7 7 7 5 5
1 2 3 4 5 6 6 7 7 8 8 8 8 8 10 11 13 13 12 11 11 12 12 11 10 9 11 12 14 16 17 18 18 14 13 13 10 10 10 10 9 8 7
1 2 3 4 6 6 6 7 7 7 8 8 9 10 10 11 13 14 13 11 12 12 12 11 11 11 10 10 9 10 12 13 14 14 14 13 10 10 12 12 11 6 2
2 3 4 4 6 7 7 8 7 7 8 8 8 10 11 12 13 14 13 9 9 12 11 10 11 11 12 12 10 10 10 10 9 12 13 12 12 13 11 7 7 6 4
3 4 4 5 6 7 8 8 7 7 9 9 9 9 10 12 14 15 13 7 9 9 8 8 10 11 13 13 11 10 12 10 6 5 7 8 8 10 13 12 10 8 5
4 4 5 5 6 7 7 7 7 8 9 9 10 10 9 10 14 15 13 7 8 8 8 7 7 11 13 14 13 11 13 9 6 6 6 5 4 5 6 7 7 8 7
4 5 6 6 6 6 7 7 7 8 9 9 9 10 7 7 8 11 13 12 11 9 9 8 7 11 13 14 12 12 12 9 5 5 5 6 5 4 4 4 4 3 2
5 6 6 7 6 6 6 8 7 6 6 8 7 9 9 6 7 10 12 13 13 9 8 12 13 14 13 11 12 12 9 6 5 6 7 6 4 4 5 4 4 5 5
5 7 6 7 7 6 5 5 6 6 7 7 8 8 9 9 7 6 5 6 7 8 7 8 11 11 10 8 7 7 6 6 6 6 5 4 3 4 5 5 5 5 4
5 6 6 6 7 7 6 5 7 7 7 9 8 8 9 11 11 12 10 8 7 7 7 6 6 5 5 5 4 4 4 4 5 4 4 4 5 5 5 5 5 5 5
5 6 5 5 6 6 7 8 10 11 14 15 15 14 11 14 19 19 18 17 16 14 9 7 7 6 6 6 5 4 4 5 5 5 5 6 6 6 6 5 5 5 6
5 6 5 6 6 6 7 8 10 11 12 14 15 16 16 18 19 18 18 17 16 13 8 7 7 6 6 5 5 5 5 4 4 5 5 6 6 6 6 6 6 6 6
5 6 6 6 6 6 6 7 8 9 11 9 10 13 16 17 17 17 16 13 9 6 5 6 6 6 5 5 4 4 3 3 3 4 5 5 6 6 6 6 7 7 7
5 5 5 5 6 6 6 7 7 8 9 10 9 9 11 14 15 14 12 7 7 7 6 6 5 5 4 4 3 3 3 3 3 4 4 5 5 6 6 6 6 8 7
4 6 6 5 6 6 6 6 7 7 8 8 8 9 8 8 7 7 6 5 6 6 6 6 5 4 4 3 3 2 2 2 3 3 3 4 4 5 6 7 7 7 6
4 5 6 5 5 5 6 6 7 7 7 8 8 9 12 8 8 8 7 6 6 6 6 5 5 4 3 3 2 2 2 2 2 2 2 3 3 4 4 5 5 6 7
3 4 4 5 5 5 6 6 6 7 7 8 8 9 12 7 7 7 7 6 6 5 5 5 4 4 3 3 3 2 2 2 2 2 2 2 3 4 4 5 5 6 7
3 4 4 5 5 6 6 6 6 6 7 7 8 8 7 6 6 7 7 6 6 5 5 4 4 4 3 2 2 2 2 3 2 3 3 3 3 4 5 6 7 8 8
3 4 5 5 5 5 5 6 6 6 7 7 7 7 7 7 7 7 6 6 5 5 5 4 4 4 4 3 2 2 1 1 1 2 4 4 4 4 4 5 6 8 8
3 4 4 5 5 5 5 6 6 6 6 6 6 6 6 6 6 6 5 5 6 5 6 5 4 4 4 3 3 2 1 1 0 1 2 3 4 5 5 6 6 7 8
3 4 4 4 5 5 5 5 6 6 6 6 6 6 6 6 6 6 5 5 5 5 5 5 5 5 5 3 3 2 1 1 2 2 2 3 4 4 5 5 7 7 9
Wind_Direction
37 353 335 308 299 290 279 278 275 273 268 262 256 250 247 244 239 237 238 236 237 239 236 237 240 237 238 234 230 230 231 233 251 254 223 208 203 210 210 213 216 216 217
36 12 341 326 326 317 303 298 297 292 286 276 270 261 254 250 244 241 243 241 241 242 240 238 241 238 239 237 234 233 234 230 240 252 239 210 212 208 204 206 210 211 215
42 24 1 348 336 320 309 306 305 299 295 290 282 273 265 258 253 247 245 245 244 245 244 242 242 239 241 238 236 236 235 234 234 243 244 218 212 196 195 204 204 208 209
50 24 357 336 324 313 310 309 305 300 297 294 286 278 274 269 262 256 252 251 250 249 247 245 245 241 242 241 239 238 235 234 233 237 241 222 206 186 180 195 212 209 212
57 7 324 317 320 321 318 312 307 302 296 291 289 285 280 275 267 265 262 260 259 258 253 248 247 244 242 240 239 238 234 236 234 234 236 227 208 186 200 190 208 200 207
36 322 319 325 326 322 317 312 309 304 299 295 291 288 285 278 280 276 269 268 264 261 260 256 250 243 241 238 237 234 229 232 235 234 236 232 224 209 196 187 189 182 215
323 317 328 326 320 315 314 313 309 306 304 300 294 290 287 284 285 282 273 269 267 263 261 261 259 251 241 243 242 240 238 235 231 232 236 234 225 207 193 194 196 197 207
326 326 330 325 314 311 310 306 305 303 301 297 295 293 290 287 288 286 282 270 268 266 262 258 259 258 244 238 244 246 245 241 235 234 240 240 230 210 198 199 197 188 145
330 323 320 316 310 308 306 303 303 302 299 295 292 290 288 289 289 287 284 277 271 270 266 260 257 259 251 237 239 247 252 252 242 231 235 236 225 208 190 173 170 170 190
310 307 305 303 300 299 298 298 297 295 293 294 289 284 280 283 286 284 279 272 273 275 272 259 249 250 252 239 237 241 247 249 233 230 231 233 227 209 195 196 188 187 181
306 302 300 297 295 293 294 294 295 295 296 293 290 287 279 276 283 283 277 267 266 275 276 273 261 251 251 246 242 243 244 243 228 218 222 225 218 208 203 201 198 194 189
314 308 305 301 298 295 294 295 295 295 295 295 294 293 286 278 279 285 282 274 271 270 273 274 269 262 257 255 251 245 241 239 234 223 219 219 213 208 193 176 167 166 172
319 310 305 304 300 296 294 296 297 291 289 292 293 294 298 297 291 289 286 283 279 272 272 272 272 270 266 261 249 244 240 231 223 222 222 222 208 182 155 135 116 107 88
308 307 308 309 307 303 295 290 290 290 290 290 291 293 298 298 295 295 291 290 287 279 278 278 276 270 261 254 253 245 235 225 220 222 213 196 171 167 168 160 158 146 126
308 307 310 307 304 303 297 288 288 280 275 283 287 287 292 294 295 297 296 292 286 278 285 282 275 270 260 258 254 244 231 219 216 209 191 182 177 175 174 164 163 163 161
309 308 306 304 302 302 304 302 292 287 292 286 285 284 285 285 296 298 296 293 290 283 279 271 269 264 261 256 251 248 235 223 211 194 188 186 184 179 171 167 168 168 163
294 298 298 298 299 302 304 306 307 306 297 294 295 294 291 296 299 300 300 298 293 287 274 266 265 263 261 256 248 242 241 226 205 195 191 185 179 175 171 170 170 165 162
290 290 290 291 294 295 295 295 295 300 306 303 301 300 303 303 303 303 303 301 295 292 276 273 272 270 267 262 253 243 235 217 204 198 190 182 177 175 175 176 176 170 164
291 290 291 291 289 288 289 288 287 289 292 297 303 307 308 306 306 307 307 293 287 285 282 277 276 275 272 268 263 249 233 223 212 198 190 184 179 176 177 177 172 162 158
287 291 294 292 293 291 290 289 289 289 289 293 297 302 311 312 307 310 307 297 289 285 284 280 278 274 272 267 261 250 234 224 210 200 191 183 178 176 174 172 170 166 163
291 295 296 293 290 290 291 289 288 288 288 290 291 299 310 304 301 301 299 294 288 285 283 280 278 275 272 270 261 244 231 233 222 200 191 183 173 170 166 162 163 157 148
289 291 292 288 290 290 289 287 286 286 287 290 294 301 308 302 297 298 298 297 295 292 290 287 284 282 277 268 256 244 236 228 220 201 181 174 169 164 159 155 150 146 144
294 297 296 293 291 294 294 290 290 291 292 293 297 301 303 301 298 296 297 301 303 302 301 294 291 295 298 293 279 250 236 237 228 200 176 169 166 163 159 155 152 149 150
299 298 298 298 298 296 296 298 298 297 298 299 301 302 302 301 300 301 304 309 313 314 313 309 302 298 302 306 304 298 282 272 241 198 175 166 164 161 155 152 152 153 150
299 299 300 299 300 299 298 298 299 299 299 300 302 303 304 304 305 307 310 313 316 319 325 325 319 315 310 309 310 311 327 350 57 157 162 156 154 153 150 149 150 148 148
299 299 297 297 296 297 297 299 300 302 301 302 303 303 304 306 308 311 313 315 318 320 323 325 329 331 328 321 314 324 347 70 97 112 143 145 145 147 145 144 145 145 145